THY4902 LTCF-LTBJ

Flight info

Callsign THY4902
Flight time 2h 26m
Altitude 350
Route NIVLA UW27 VIRAN UT309 ERZ UA4 SIV UT54 HAY UR32 NESET UT54 KULAR
Aircraft A321/M-SDE3/K

Departure

Time 2026-05-06 07:11
Airport Kars Airport (LTCF)

Arrival

Time 2026-05-06 09:38
Airport Adnan Menderes International Airport (LTBJ)
Time Latitude Longitude Altitude Speed Heading
2026-05-06 06:44 40.56523 43.11108 5892 ft 0 kts 335°
2026-05-06 06:58 40.56503 43.11121 5900 ft 3 kts 336°
2026-05-06 06:58 40.56479 43.11129 5900 ft 3 kts
2026-05-06 06:59 40.56461 43.11112 5900 ft 3 kts 57°
2026-05-06 06:59 40.56457 43.11104 5900 ft 0 kts 69°
2026-05-06 07:02 40.56457 43.11105 5900 ft 0 kts 69°
2026-05-06 07:02 40.56461 43.11118 5900 ft 2 kts 69°
2026-05-06 07:02 40.56467 43.11145 5900 ft 3 kts 85°
2026-05-06 07:03 40.56470 43.11183 5900 ft 4 kts 83°
2026-05-06 07:03 40.56476 43.11225 5900 ft 5 kts 77°
2026-05-06 07:03 40.56476 43.11274 5900 ft 6 kts 115°
2026-05-06 07:03 40.56453 43.11324 5901 ft 6 kts 113°
2026-05-06 07:04 40.56426 43.11357 5901 ft 4 kts 146°
2026-05-06 07:04 40.56404 43.11382 5901 ft 4 kts 127°
2026-05-06 07:04 40.56395 43.11422 5902 ft 5 kts 86°
2026-05-06 07:04 40.56411 43.11476 5901 ft 7 kts 62°
2026-05-06 07:05 40.56448 43.11540 5900 ft 10 kts 45°
2026-05-06 07:05 40.56485 43.11625 5900 ft 11 kts 68°
2026-05-06 07:05 40.56513 43.11725 5900 ft 12 kts 70°
2026-05-06 07:05 40.56542 43.11834 5900 ft 13 kts 70°
2026-05-06 07:06 40.56577 43.11947 5900 ft 13 kts 65°
2026-05-06 07:06 40.56620 43.12063 5900 ft 14 kts 62°
2026-05-06 07:06 40.56666 43.12182 5900 ft 14 kts 63°
2026-05-06 07:06 40.56712 43.12307 5900 ft 15 kts 65°
2026-05-06 07:07 40.56759 43.12436 5899 ft 16 kts 62°
2026-05-06 07:07 40.56812 43.12580 5896 ft 18 kts 65°
2026-05-06 07:07 40.56864 43.12734 5895 ft 19 kts 65°
2026-05-06 07:07 40.56909 43.12850 5893 ft 6 kts 62°
2026-05-06 07:08 40.56930 43.12912 5893 ft 8 kts 66°
2026-05-06 07:08 40.56961 43.12996 5891 ft 12 kts 63°
2026-05-06 07:08 40.57005 43.13107 5888 ft 15 kts 63°
2026-05-06 07:08 40.57040 43.13203 5885 ft 8 kts 66°
2026-05-06 07:09 40.57039 43.13289 5884 ft 11 kts 132°
2026-05-06 07:09 40.57017 43.13312 5884 ft 0 kts 150°
2026-05-06 07:09 40.57008 43.13319 5884 ft 2 kts 152°
2026-05-06 07:09 40.56985 43.13335 5884 ft 5 kts 152°
2026-05-06 07:10 40.56942 43.13361 5885 ft 8 kts 169°
2026-05-06 07:10 40.56893 43.13312 5886 ft 10 kts 243°
2026-05-06 07:10 40.56856 43.13209 5889 ft 23 kts 245°
2026-05-06 07:10 40.56691 43.12737 5897 ft 91 kts 245°
2026-05-06 07:11 40.56325 43.11737 5900 ft 150 kts 244°
2026-05-06 07:11 40.55786 43.10318 5969 ft 192 kts 243°
2026-05-06 07:11 40.55150 43.08787 6671 ft 188 kts 242°
2026-05-06 07:11 40.54546 43.07297 7433 ft 187 kts 247°
2026-05-06 07:12 40.54133 43.05721 8031 ft 187 kts 253°
2026-05-06 07:12 40.53732 43.04024 8333 ft 201 kts 252°
2026-05-06 07:12 40.53258 43.02242 8626 ft 215 kts 250°
2026-05-06 07:12 40.52708 43.00353 8919 ft 230 kts 249°
2026-05-06 07:13 40.52087 42.98321 9145 ft 250 kts 248°
2026-05-06 07:13 40.51405 42.96142 9485 ft 265 kts 248°
2026-05-06 07:13 40.50703 42.93868 10039 ft 271 kts 248°
2026-05-06 07:13 40.49994 42.91581 10670 ft 274 kts 248°
2026-05-06 07:14 40.49277 42.89288 11309 ft 275 kts 248°
2026-05-06 07:14 40.48551 42.86978 11934 ft 277 kts 248°
2026-05-06 07:14 40.47809 42.84629 12549 ft 279 kts 248°
2026-05-06 07:14 40.47058 42.82256 13164 ft 282 kts 247°
2026-05-06 07:15 40.46309 42.79888 13761 ft 284 kts 247°
2026-05-06 07:15 40.45570 42.77522 14338 ft 286 kts 248°
2026-05-06 07:15 40.44819 42.75087 14926 ft 288 kts 248°
2026-05-06 07:15 40.44072 42.72662 15490 ft 290 kts 248°
2026-05-06 07:16 40.43302 42.70163 15879 ft 300 kts 248°
2026-05-06 07:16 40.42508 42.67589 16145 ft 313 kts 248°
2026-05-06 07:16 40.41698 42.64973 16395 ft 326 kts 248°
2026-05-06 07:16 40.40833 42.62177 16655 ft 340 kts 248°
2026-05-06 07:17 40.39929 42.59258 16902 ft 353 kts 248°
2026-05-06 07:17 40.39003 42.56273 17145 ft 366 kts 248°
2026-05-06 07:17 40.38031 42.53142 17377 ft 378 kts 248°
2026-05-06 07:17 40.37021 42.49893 17653 ft 389 kts 248°
2026-05-06 07:18 40.35989 42.46578 18122 ft 393 kts 248°
2026-05-06 07:18 40.34955 42.43259 18690 ft 395 kts 248°
2026-05-06 07:18 40.33915 42.39930 19224 ft 398 kts 248°
2026-05-06 07:18 40.32877 42.36608 19729 ft 401 kts 248°
2026-05-06 07:19 40.31821 42.33229 20242 ft 403 kts 247°
2026-05-06 07:19 40.30767 42.29854 20740 ft 406 kts 247°
2026-05-06 07:19 40.29695 42.26428 21211 ft 409 kts 247°
2026-05-06 07:19 40.28611 42.22965 21686 ft 411 kts 247°
2026-05-06 07:20 40.27530 42.19526 22140 ft 414 kts 247°
2026-05-06 07:20 40.26429 42.16028 22584 ft 417 kts 247°
2026-05-06 07:20 40.25320 42.12514 23025 ft 420 kts 247°
2026-05-06 07:20 40.24207 42.08990 23459 ft 422 kts 247°
2026-05-06 07:21 40.23084 42.05439 23849 ft 425 kts 247°
2026-05-06 07:21 40.21949 42.01856 24249 ft 427 kts 247°
2026-05-06 07:21 40.20812 41.98272 24668 ft 428 kts 247°
2026-05-06 07:21 40.19674 41.94687 25045 ft 430 kts 247°
2026-05-06 07:22 40.18528 41.91089 25435 ft 431 kts 247°
2026-05-06 07:22 40.17384 41.87494 25800 ft 433 kts 247°
2026-05-06 07:22 40.16220 41.83845 26147 ft 434 kts 247°
2026-05-06 07:22 40.15060 41.80213 26472 ft 435 kts 247°
2026-05-06 07:23 40.13900 41.76588 26785 ft 437 kts 247°
2026-05-06 07:23 40.12721 41.72912 27185 ft 435 kts 247°
2026-05-06 07:23 40.11568 41.69318 27667 ft 432 kts 247°
2026-05-06 07:23 40.10392 41.65678 28112 ft 430 kts 247°
2026-05-06 07:24 40.09249 41.62151 28563 ft 427 kts 247°
2026-05-06 07:24 40.08086 41.58576 28968 ft 425 kts 247°
2026-05-06 07:24 40.06933 41.55037 29393 ft 423 kts 247°
2026-05-06 07:24 40.05798 41.51552 29756 ft 421 kts 247°
2026-05-06 07:25 40.04657 41.48062 30095 ft 420 kts 247°
2026-05-06 07:25 40.03519 41.44580 30431 ft 419 kts 247°
2026-05-06 07:25 40.02376 41.41091 30719 ft 418 kts 247°
2026-05-06 07:25 40.01238 41.37622 30970 ft 415 kts 247°
2026-05-06 07:26 40.00113 41.34195 31215 ft 414 kts 246°
2026-05-06 07:26 39.99003 41.30736 31439 ft 412 kts 248°
2026-05-06 07:26 39.98030 41.27209 31633 ft 412 kts 251°
2026-05-06 07:26 39.97229 41.23640 31838 ft 412 kts 255°
2026-05-06 07:27 39.96598 41.20044 31997 ft 412 kts 258°
2026-05-06 07:27 39.96129 41.16359 32161 ft 413 kts 261°
2026-05-06 07:27 39.95836 41.12662 32336 ft 413 kts 264°
2026-05-06 07:27 39.95715 41.08896 32521 ft 413 kts 267°
2026-05-06 07:28 39.95704 41.05207 32680 ft 414 kts 268°
2026-05-06 07:28 39.95702 41.01428 32825 ft 414 kts 268°
2026-05-06 07:28 39.95700 40.93937 33092 ft 416 kts 268°
2026-05-06 07:29 39.95696 40.90167 33201 ft 417 kts 268°
2026-05-06 07:29 39.95692 40.86428 33314 ft 418 kts 268°
2026-05-06 07:29 39.95686 40.82652 33440 ft 419 kts 268°
2026-05-06 07:29 39.95678 40.78859 33555 ft 419 kts 268°
2026-05-06 07:30 39.95668 40.75064 33691 ft 420 kts 268°
2026-05-06 07:30 39.95657 40.71258 33831 ft 420 kts 268°
2026-05-06 07:30 39.95645 40.67458 33939 ft 422 kts 268°
2026-05-06 07:30 39.95636 40.63633 33967 ft 423 kts 268°
2026-05-06 07:31 39.95617 40.56029 33982 ft 423 kts 268°
2026-05-06 07:31 39.95589 40.48369 33987 ft 424 kts 268°
2026-05-06 07:32 39.95552 40.40717 33995 ft 424 kts 268°
2026-05-06 07:32 39.95507 40.33051 33991 ft 424 kts 267°
2026-05-06 07:33 39.95459 40.25429 33994 ft 423 kts 267°
2026-05-06 07:33 39.95403 40.17764 33996 ft 424 kts 267°
2026-05-06 07:34 39.95342 40.10095 33994 ft 425 kts 267°
2026-05-06 07:34 39.95274 40.02398 34002 ft 425 kts 267°
2026-05-06 07:35 39.95201 39.94747 34003 ft 426 kts 267°
2026-05-06 07:35 39.95129 39.87020 34000 ft 426 kts 267°
2026-05-06 07:36 39.95050 39.79367 34003 ft 427 kts 267°
2026-05-06 07:36 39.94962 39.71663 34011 ft 426 kts 267°
2026-05-06 07:37 39.94864 39.63961 34025 ft 426 kts 267°
2026-05-06 07:37 39.94765 39.56232 34033 ft 427 kts 267°
2026-05-06 07:38 39.94672 39.48503 34035 ft 427 kts 267°
2026-05-06 07:38 39.94569 39.40791 34038 ft 428 kts 267°
2026-05-06 07:39 39.94457 39.33067 34019 ft 428 kts 267°
2026-05-06 07:39 39.94340 39.25324 34006 ft 429 kts 267°
2026-05-06 07:40 39.94214 39.17594 33993 ft 429 kts 267°
2026-05-06 07:40 39.94085 39.09849 34008 ft 429 kts 267°
2026-05-06 07:41 39.93969 39.02096 33998 ft 428 kts 267°
2026-05-06 07:41 39.93844 38.94351 34020 ft 430 kts 267°
2026-05-06 07:42 39.93616 38.86641 34033 ft 430 kts 264°
2026-05-06 07:42 39.93116 38.78874 34040 ft 430 kts 264°
2026-05-06 07:43 39.92599 38.71140 34038 ft 430 kts 264°
2026-05-06 07:43 39.92075 38.63393 34049 ft 432 kts 264°
2026-05-06 07:44 39.91544 38.55606 34046 ft 432 kts 264°
2026-05-06 07:44 39.91011 38.47875 34038 ft 431 kts 264°
2026-05-06 07:45 39.90471 38.40131 34028 ft 431 kts 264°
2026-05-06 07:45 39.89925 38.32394 34033 ft 432 kts 263°
2026-05-06 07:46 39.89349 38.24634 34024 ft 432 kts 263°
2026-05-06 07:46 39.88776 38.16830 34017 ft 432 kts 263°
2026-05-06 07:47 39.88216 38.09117 34018 ft 432 kts 263°
2026-05-06 07:47 39.87648 38.01357 34009 ft 433 kts 263°
2026-05-06 07:48 39.87074 37.93535 34010 ft 434 kts 264°
2026-05-06 07:48 39.86503 37.85722 34022 ft 434 kts 264°
2026-05-06 07:49 39.85930 37.77977 34034 ft 434 kts 264°
2026-05-06 07:49 39.85344 37.70144 34050 ft 434 kts 264°
2026-05-06 07:50 39.84761 37.62389 34048 ft 434 kts 264°
2026-05-06 07:50 39.84167 37.54559 34048 ft 434 kts 264°
2026-05-06 07:51 39.83573 37.46822 34042 ft 435 kts 264°
2026-05-06 07:51 39.82965 37.38992 34051 ft 434 kts 264°
2026-05-06 07:52 39.82348 37.31215 34051 ft 434 kts 263°
2026-05-06 07:52 39.81730 37.23450 34056 ft 435 kts 263°
2026-05-06 07:53 39.81104 37.15664 34061 ft 434 kts 263°
2026-05-06 07:53 39.80472 37.07875 34065 ft 435 kts 264°
2026-05-06 07:54 39.79830 37.00022 34067 ft 436 kts 264°
2026-05-06 07:54 39.79190 36.92209 34069 ft 436 kts 264°
2026-05-06 07:55 39.78911 36.84364 34075 ft 436 kts 269°
2026-05-06 07:55 39.78856 36.76566 34069 ft 436 kts 269°
2026-05-06 07:56 39.78799 36.68718 34068 ft 436 kts 270°
2026-05-06 07:56 39.78737 36.60865 34060 ft 435 kts 270°
2026-05-06 07:57 39.78667 36.52996 34050 ft 435 kts 270°
2026-05-06 07:57 39.78592 36.45152 34039 ft 436 kts 270°
2026-05-06 07:58 39.78513 36.37301 34044 ft 436 kts 270°
2026-05-06 07:58 39.78424 36.29452 34047 ft 435 kts 269°
2026-05-06 07:59 39.78154 36.21646 34049 ft 436 kts 265°
2026-05-06 07:59 39.77560 36.13808 34052 ft 436 kts 265°
2026-05-06 08:00 39.76952 36.05984 34044 ft 436 kts 265°
2026-05-06 08:00 39.76341 35.98187 34041 ft 437 kts 265°
2026-05-06 08:01 39.75724 35.90357 34041 ft 437 kts 265°
2026-05-06 08:01 39.75102 35.82528 34050 ft 436 kts 265°
2026-05-06 08:02 39.74475 35.74717 34056 ft 436 kts 265°
2026-05-06 08:02 39.73846 35.66915 34057 ft 436 kts 265°
2026-05-06 08:03 39.73210 35.59123 34049 ft 435 kts 265°
2026-05-06 08:03 39.72565 35.51302 34053 ft 435 kts 266°
2026-05-06 08:04 39.71915 35.43519 34045 ft 435 kts 266°
2026-05-06 08:04 39.71261 35.35739 34038 ft 435 kts 266°
2026-05-06 08:05 39.70604 35.27966 34045 ft 435 kts 265°
2026-05-06 08:05 39.69941 35.20200 34051 ft 435 kts 265°
2026-05-06 08:06 39.69273 35.12428 34050 ft 436 kts 266°
2026-05-06 08:06 39.68598 35.04650 34029 ft 435 kts 266°
2026-05-06 08:07 39.67919 34.96890 34035 ft 434 kts 266°
2026-05-06 08:07 39.67233 34.89093 34037 ft 434 kts 266°
2026-05-06 08:08 39.66545 34.81353 34047 ft 434 kts 266°
2026-05-06 08:08 39.65853 34.73623 34044 ft 434 kts 266°
2026-05-06 08:09 39.65155 34.65878 34046 ft 433 kts 266°
2026-05-06 08:09 39.64449 34.58106 34050 ft 434 kts 266°
2026-05-06 08:10 39.63741 34.50362 34050 ft 435 kts 266°
2026-05-06 08:10 39.63023 34.42593 34052 ft 433 kts 267°
2026-05-06 08:11 39.62306 34.34896 34046 ft 433 kts 266°
2026-05-06 08:11 39.61587 34.27188 34070 ft 432 kts 266°
2026-05-06 08:12 39.60862 34.19490 34047 ft 432 kts 266°
2026-05-06 08:12 39.60129 34.11766 34047 ft 431 kts 267°
2026-05-06 08:13 39.59394 34.04074 34051 ft 433 kts 267°
2026-05-06 08:13 39.58649 33.96333 34050 ft 432 kts 267°
2026-05-06 08:14 39.57903 33.88651 34042 ft 433 kts 267°
2026-05-06 08:14 39.57150 33.80944 34056 ft 432 kts 267°
2026-05-06 08:15 39.56391 33.73238 34055 ft 432 kts 267°
2026-05-06 08:15 39.55629 33.65550 34060 ft 432 kts 267°
2026-05-06 08:16 39.54864 33.57862 34062 ft 432 kts 268°
2026-05-06 08:16 39.54091 33.50137 34068 ft 432 kts 268°
2026-05-06 08:17 39.53317 33.42470 34063 ft 431 kts 268°
2026-05-06 08:17 39.52535 33.34781 34065 ft 431 kts 267°
2026-05-06 08:18 39.51752 33.27124 34057 ft 430 kts 267°
2026-05-06 08:18 39.50962 33.19466 34066 ft 431 kts 267°
2026-05-06 08:19 39.50160 33.11786 34060 ft 432 kts 267°
2026-05-06 08:19 39.49351 33.04119 34045 ft 432 kts 267°
2026-05-06 08:20 39.48537 32.96442 34039 ft 434 kts 267°
2026-05-06 08:20 39.47715 32.88720 34036 ft 433 kts 267°
2026-05-06 08:21 39.46909 32.81066 34041 ft 433 kts 267°
2026-05-06 08:21 39.46090 32.73357 34041 ft 432 kts 267°
2026-05-06 08:22 39.45264 32.65645 34045 ft 432 kts 267°
2026-05-06 08:22 39.44426 32.57980 34041 ft 434 kts 266°
2026-05-06 08:23 39.43158 32.50363 34039 ft 438 kts 260°
2026-05-06 08:23 39.41222 32.42873 34044 ft 442 kts 254°
2026-05-06 08:24 39.38985 32.35516 34040 ft 443 kts 254°
2026-05-06 08:24 39.36679 32.28122 34048 ft 444 kts 253°
2026-05-06 08:25 39.34356 32.20746 34057 ft 444 kts 253°
2026-05-06 08:25 39.32044 32.13417 34059 ft 443 kts 253°
2026-05-06 08:26 39.29720 32.06069 34061 ft 444 kts 253°
2026-05-06 08:26 39.27380 31.98690 34065 ft 444 kts 253°
2026-05-06 08:27 39.25055 31.91375 34061 ft 444 kts 252°
2026-05-06 08:27 39.22706 31.84009 34058 ft 443 kts 252°
2026-05-06 08:28 39.20374 31.76710 34056 ft 443 kts 252°
2026-05-06 08:28 39.18024 31.69373 34054 ft 442 kts 252°
2026-05-06 08:29 39.15671 31.62051 34056 ft 442 kts 252°
2026-05-06 08:29 39.13329 31.54783 34059 ft 443 kts 252°
2026-05-06 08:30 39.10974 31.47496 34060 ft 443 kts 252°
2026-05-06 08:30 39.08608 31.40190 34063 ft 443 kts 252°
2026-05-06 08:31 39.06227 31.32865 34065 ft 443 kts 251°
2026-05-06 08:31 39.03860 31.25574 34064 ft 443 kts 251°
2026-05-06 08:32 39.01487 31.18300 34064 ft 443 kts 251°
2026-05-06 08:32 38.99100 31.11010 34062 ft 443 kts 251°
2026-05-06 08:33 38.96721 31.03765 34060 ft 442 kts 251°
2026-05-06 08:33 38.94335 30.96514 34059 ft 443 kts 251°
2026-05-06 08:34 38.90733 30.85610 34056 ft 443 kts 251°
2026-05-06 08:35 38.88313 30.78358 34052 ft 443 kts 251°
2026-05-06 08:35 38.85891 30.71130 34056 ft 443 kts 251°
2026-05-06 08:36 38.83471 30.63874 34052 ft 443 kts 251°
2026-05-06 08:36 38.81272 30.56561 34057 ft 440 kts 256°
2026-05-06 08:37 38.79710 30.49073 34054 ft 436 kts 262°
2026-05-06 08:37 38.78667 30.41426 34057 ft 435 kts 264°
2026-05-06 08:38 38.77684 30.33801 34052 ft 435 kts 264°
2026-05-06 08:38 38.76692 30.26165 34061 ft 435 kts 264°
2026-05-06 08:39 38.75699 30.18589 34055 ft 436 kts 264°
2026-05-06 08:39 38.74690 30.10950 34044 ft 435 kts 264°
2026-05-06 08:40 38.73676 30.03321 34034 ft 436 kts 263°
2026-05-06 08:40 38.72683 29.95693 34027 ft 435 kts 264°
2026-05-06 08:41 38.71738 29.88053 34048 ft 435 kts 265°
2026-05-06 08:41 38.70793 29.80440 34054 ft 434 kts 265°
2026-05-06 08:42 38.69840 29.72845 34067 ft 433 kts 265°
2026-05-06 08:42 38.68882 29.65250 34078 ft 433 kts 265°
2026-05-06 08:43 38.67917 29.57645 34082 ft 434 kts 265°
2026-05-06 08:43 38.66947 29.50059 34088 ft 434 kts 265°
2026-05-06 08:44 38.66112 29.42436 34092 ft 432 kts 267°
2026-05-06 08:44 38.65380 29.34828 34081 ft 432 kts 267°
2026-05-06 08:45 38.64646 29.27239 34085 ft 432 kts 267°
2026-05-06 08:45 38.63904 29.19656 34085 ft 432 kts 267°
2026-05-06 08:46 38.63155 29.12072 34078 ft 432 kts 267°
2026-05-06 08:46 38.62402 29.04473 34077 ft 431 kts 267°
2026-05-06 08:47 38.61647 28.96901 34075 ft 431 kts 267°
2026-05-06 08:47 38.60886 28.89323 34074 ft 431 kts 267°
2026-05-06 08:48 38.60119 28.81744 34072 ft 431 kts 267°
2026-05-06 08:48 38.59321 28.74210 34066 ft 433 kts 265°
2026-05-06 08:49 38.57691 28.66788 34063 ft 440 kts 254°
2026-05-06 08:49 38.54867 28.59786 34067 ft 448 kts 242°
2026-05-06 08:50 38.50949 28.53575 34073 ft 455 kts 232°
2026-05-06 08:50 38.46572 28.47774 34069 ft 455 kts 231°
2026-05-06 08:51 38.42164 28.41975 34070 ft 455 kts 232°
2026-05-06 08:51 38.37777 28.36180 34073 ft 456 kts 232°
2026-05-06 08:52 38.33391 28.30369 34072 ft 456 kts 231°
2026-05-06 08:52 38.28986 28.24538 34074 ft 456 kts 232°
2026-05-06 08:53 38.24598 28.18751 34074 ft 455 kts 231°
2026-05-06 08:53 38.20207 28.12975 34075 ft 455 kts 232°
2026-05-06 08:54 38.15833 28.07235 34075 ft 455 kts 232°
2026-05-06 08:54 38.11425 28.01457 34076 ft 455 kts 231°
2026-05-06 08:55 38.07027 27.95706 34073 ft 455 kts 231°
2026-05-06 08:55 38.02650 27.89994 34074 ft 455 kts 231°
2026-05-06 08:56 37.98222 27.84229 34073 ft 455 kts 232°
2026-05-06 08:56 37.93809 27.78491 34072 ft 456 kts 232°
2026-05-06 08:57 37.89394 27.72762 34067 ft 456 kts 232°
2026-05-06 08:57 37.84980 27.67085 34064 ft 456 kts 232°
2026-05-06 08:58 37.80516 27.61329 34060 ft 456 kts 232°
2026-05-06 08:58 37.76129 27.55664 34058 ft 455 kts 232°
2026-05-06 08:59 37.71703 27.49960 33928 ft 451 kts 232°
2026-05-06 08:59 37.69700 27.46967 33413 ft 438 kts 245°
2026-05-06 08:59 37.68624 27.43537 32751 ft 420 kts 266°
2026-05-06 08:59 37.68648 27.39940 32151 ft 403 kts 287°
2026-05-06 09:00 37.69729 27.36766 31435 ft 395 kts 307°
2026-05-06 09:00 37.71687 27.34413 30573 ft 397 kts 328°
2026-05-06 09:00 37.74243 27.33201 29658 ft 406 kts 348°
2026-05-06 09:00 37.77097 27.33325 28717 ft 419 kts
2026-05-06 09:01 37.79891 27.34528 27867 ft 428 kts 20°
2026-05-06 09:01 37.82421 27.36468 26984 ft 439 kts 32°
2026-05-06 09:01 37.84645 27.39167 26092 ft 450 kts 45°
2026-05-06 09:01 37.86398 27.42466 25210 ft 460 kts 56°
2026-05-06 09:02 37.87635 27.46204 24444 ft 467 kts 68°
2026-05-06 09:02 37.88353 27.50179 23933 ft 463 kts 72°
2026-05-06 09:02 37.89227 27.54058 23368 ft 454 kts 67°
2026-05-06 09:02 37.90224 27.57801 22764 ft 450 kts 65°
2026-05-06 09:03 37.91248 27.61510 22196 ft 446 kts 65°
2026-05-06 09:03 37.92279 27.65209 21629 ft 441 kts 66°
2026-05-06 09:03 37.93291 27.68835 21062 ft 437 kts 66°
2026-05-06 09:03 37.94299 27.72439 20485 ft 433 kts 66°
2026-05-06 09:04 37.95298 27.75987 19927 ft 429 kts 66°
2026-05-06 09:04 37.96305 27.79539 19364 ft 425 kts 66°
2026-05-06 09:04 37.97293 27.83026 18823 ft 421 kts 67°
2026-05-06 09:04 37.97920 27.86627 18213 ft 426 kts 81°
2026-05-06 09:05 37.97772 27.90367 17656 ft 429 kts 97°
2026-05-06 09:05 37.96840 27.93926 17124 ft 430 kts 113°
2026-05-06 09:05 37.95190 27.97046 16577 ft 430 kts 130°
2026-05-06 09:05 37.92903 27.99517 16012 ft 429 kts 147°
2026-05-06 09:06 37.90321 28.01247 15508 ft 425 kts 154°
2026-05-06 09:06 37.87526 28.02491 14915 ft 422 kts 169°
2026-05-06 09:06 37.84616 28.02696 14393 ft 415 kts 187°
2026-05-06 09:06 37.81876 28.01873 13872 ft 407 kts 204°
2026-05-06 09:07 37.79431 28.00115 13319 ft 399 kts 218°
2026-05-06 09:07 37.77401 27.97809 12770 ft 391 kts 232°
2026-05-06 09:07 37.75747 27.95165 12235 ft 387 kts 237°
2026-05-06 09:07 37.74149 27.92430 11683 ft 384 kts 237°
2026-05-06 09:08 37.72584 27.89718 11126 ft 383 kts 237°
2026-05-06 09:08 37.71036 27.87025 10754 ft 378 kts 237°
2026-05-06 09:08 37.69528 27.84405 10674 ft 363 kts 237°
2026-05-06 09:08 37.68059 27.81867 10649 ft 346 kts 238°
2026-05-06 09:09 37.66963 27.79340 10624 ft 320 kts 259°
2026-05-06 09:09 37.66851 27.76693 10649 ft 291 kts 284°
2026-05-06 09:09 37.67473 27.74346 10656 ft 276 kts 302°
2026-05-06 09:09 37.68590 27.72428 10658 ft 272 kts 318°
2026-05-06 09:10 37.70072 27.70993 10662 ft 270 kts 329°
2026-05-06 09:10 37.71683 27.69734 10663 ft 270 kts 330°
2026-05-06 09:10 37.73284 27.68490 10655 ft 270 kts 330°
2026-05-06 09:10 37.74888 27.67230 10655 ft 270 kts 330°
2026-05-06 09:11 37.76467 27.65976 10655 ft 271 kts 330°
2026-05-06 09:11 37.78064 27.64699 10661 ft 270 kts 329°
2026-05-06 09:11 37.79640 27.63434 10662 ft 270 kts 329°
2026-05-06 09:11 37.81233 27.62150 10660 ft 270 kts 329°
2026-05-06 09:12 37.82822 27.60867 10661 ft 270 kts 329°
2026-05-06 09:12 37.84400 27.59592 10661 ft 270 kts 329°
2026-05-06 09:12 37.85973 27.58317 10662 ft 270 kts 329°
2026-05-06 09:12 37.87550 27.57038 10662 ft 270 kts 329°
2026-05-06 09:13 37.89151 27.55739 10659 ft 270 kts 329°
2026-05-06 09:13 37.90723 27.54463 10661 ft 270 kts 329°
2026-05-06 09:13 37.92294 27.53188 10662 ft 269 kts 329°
2026-05-06 09:13 37.93865 27.51911 10664 ft 269 kts 329°
2026-05-06 09:14 37.95452 27.50620 10659 ft 269 kts 329°
2026-05-06 09:14 37.97015 27.49349 10657 ft 269 kts 329°
2026-05-06 09:14 37.98599 27.48060 10662 ft 269 kts 329°
2026-05-06 09:14 38.00166 27.46785 10665 ft 269 kts 329°
2026-05-06 09:15 38.01759 27.45487 10666 ft 270 kts 329°
2026-05-06 09:15 38.03341 27.44196 10681 ft 270 kts 329°
2026-05-06 09:15 38.04916 27.42911 10664 ft 270 kts 329°
2026-05-06 09:15 38.06499 27.41620 10663 ft 270 kts 329°
2026-05-06 09:16 38.08079 27.40329 10670 ft 270 kts 329°
2026-05-06 09:16 38.09644 27.39050 10672 ft 270 kts 329°
2026-05-06 09:16 38.11229 27.37759 10678 ft 269 kts 330°
2026-05-06 09:16 38.12788 27.36492 10541 ft 265 kts 330°
2026-05-06 09:17 38.14328 27.35239 10140 ft 265 kts 330°
2026-05-06 09:17 38.15894 27.33954 9734 ft 265 kts 329°
2026-05-06 09:17 38.17429 27.32688 9360 ft 264 kts 329°
2026-05-06 09:17 38.18948 27.31436 8977 ft 263 kts 329°
2026-05-06 09:18 38.20495 27.30162 8584 ft 263 kts 329°
2026-05-06 09:18 38.22013 27.28914 8194 ft 262 kts 329°
2026-05-06 09:18 38.23547 27.27653 7815 ft 261 kts 329°
2026-05-06 09:18 38.25064 27.26406 7447 ft 260 kts 329°
2026-05-06 09:19 38.26564 27.25173 7254 ft 252 kts 329°
2026-05-06 09:19 38.27997 27.23991 7084 ft 243 kts 329°
2026-05-06 09:19 38.29377 27.22853 6916 ft 234 kts 329°
2026-05-06 09:19 38.30712 27.21752 6751 ft 226 kts 329°
2026-05-06 09:20 38.31982 27.20705 6590 ft 218 kts 329°
2026-05-06 09:20 38.33211 27.19691 6426 ft 210 kts 329°
2026-05-06 09:20 38.34391 27.18718 6252 ft 202 kts 329°
2026-05-06 09:20 38.35550 27.17763 5987 ft 200 kts 329°
2026-05-06 09:21 38.36694 27.16821 5766 ft 194 kts 329°
2026-05-06 09:21 38.37673 27.16012 5613 ft 187 kts 329°
2026-05-06 09:21 38.40018 27.14077 5002 ft 184 kts 329°
2026-05-06 09:22 38.41080 27.13201 4700 ft 183 kts 329°
2026-05-06 09:22 38.42112 27.12346 4478 ft 178 kts 328°
2026-05-06 09:22 38.42923 27.11189 4259 ft 187 kts 289°
2026-05-06 09:22 38.42784 27.09527 4267 ft 195 kts 239°
2026-05-06 09:23 38.41736 27.08510 4025 ft 195 kts 191°
2026-05-06 09:23 38.40449 27.08730 3629 ft 193 kts 152°
2026-05-06 09:23 38.39295 27.09549 3203 ft 199 kts 145°
2026-05-06 09:23 38.38135 27.10500 2788 ft 219 kts 144°
2026-05-06 09:24 38.36856 27.11570 2995 ft 226 kts 144°
2026-05-06 09:24 38.35634 27.12803 3323 ft 225 kts 124°
2026-05-06 09:24 38.35061 27.14535 3750 ft 219 kts 90°
2026-05-06 09:24 38.35337 27.16367 4185 ft 215 kts 57°
2026-05-06 09:25 38.36357 27.17704 4644 ft 214 kts 32°
2026-05-06 09:25 38.37611 27.18662 5160 ft 204 kts 27°
2026-05-06 09:25 38.38773 27.19467 5599 ft 177 kts 26°
2026-05-06 09:25 38.39819 27.20190 5913 ft 169 kts 26°
2026-05-06 09:26 38.40842 27.20899 5959 ft 168 kts 26°
2026-05-06 09:26 38.41871 27.21612 5959 ft 167 kts 26°
2026-05-06 09:26 38.42887 27.22314 5969 ft 167 kts 26°
2026-05-06 09:26 38.43903 27.23016 5977 ft 167 kts 26°
2026-05-06 09:27 38.44904 27.23707 5978 ft 165 kts 26°
2026-05-06 09:27 38.45887 27.24385 5771 ft 162 kts 26°
2026-05-06 09:27 38.46872 27.25061 5390 ft 164 kts 26°
2026-05-06 09:27 38.47881 27.25749 5050 ft 162 kts 26°
2026-05-06 09:28 38.48877 27.26394 4991 ft 162 kts 18°
2026-05-06 09:28 38.49994 27.26566 4991 ft 163 kts 358°
2026-05-06 09:28 38.51124 27.26451 4982 ft 164 kts 354°
2026-05-06 09:28 38.52256 27.26289 4980 ft 164 kts 354°
2026-05-06 09:29 38.53392 27.26120 4984 ft 164 kts 354°
2026-05-06 09:29 38.54534 27.25950 4979 ft 164 kts 354°
2026-05-06 09:29 38.55636 27.25646 4962 ft 164 kts 332°
2026-05-06 09:29 38.56437 27.24617 4974 ft 164 kts 308°
2026-05-06 09:30 38.57045 27.23379 4978 ft 165 kts 304°
2026-05-06 09:30 38.57618 27.22113 4974 ft 165 kts 303°
2026-05-06 09:30 38.58182 27.20852 4971 ft 165 kts 303°
2026-05-06 09:30 38.58676 27.19510 4957 ft 168 kts 282°
2026-05-06 09:31 38.58610 27.18019 4978 ft 173 kts 262°
2026-05-06 09:31 38.58330 27.16504 4968 ft 175 kts 259°
2026-05-06 09:31 38.58018 27.15008 4970 ft 175 kts 258°
2026-05-06 09:31 38.57524 27.13588 4948 ft 178 kts 228°
2026-05-06 09:32 38.56448 27.12857 4972 ft 179 kts 189°
2026-05-06 09:32 38.55220 27.12719 4986 ft 181 kts 180°
2026-05-06 09:32 38.53954 27.12699 4974 ft 182 kts 178°
2026-05-06 09:32 38.52692 27.12697 4961 ft 181 kts 180°
2026-05-06 09:33 38.51484 27.12390 4753 ft 177 kts 200°
2026-05-06 09:33 38.50396 27.11798 4401 ft 178 kts 205°
2026-05-06 09:33 38.49285 27.11120 4063 ft 176 kts 206°
2026-05-06 09:33 38.48158 27.10580 3921 ft 176 kts 189°
2026-05-06 09:34 38.46968 27.10499 3689 ft 175 kts 174°
2026-05-06 09:34 38.45808 27.10698 3467 ft 174 kts 167°
2026-05-06 09:34 38.44626 27.11024 3239 ft 173 kts 164°
2026-05-06 09:34 38.43589 27.11343 3032 ft 172 kts 163°
2026-05-06 09:35 38.42391 27.11716 2799 ft 171 kts 163°
2026-05-06 09:35 38.41284 27.12055 2577 ft 170 kts 164°
2026-05-06 09:35 38.40168 27.12394 2380 ft 169 kts 164°
2026-05-06 09:35 38.39045 27.12732 2163 ft 169 kts 164°
2026-05-06 09:36 38.38054 27.13032 1952 ft 165 kts 165°
2026-05-06 09:36 38.36358 27.13545 1612 ft 164 kts 165°
2026-05-06 09:36 38.35227 27.13887 1386 ft 163 kts 165°
2026-05-06 09:37 38.34155 27.14211 1172 ft 162 kts 166°
2026-05-06 09:37 38.33090 27.14533 961 ft 162 kts 166°
2026-05-06 09:37 38.31855 27.14907 716 ft 161 kts 166°
2026-05-06 09:37 38.30678 27.15263 484 ft 160 kts 166°
2026-05-06 09:38 38.29670 27.15564 419 ft 102 kts 165°
2026-05-06 09:38 38.29320 27.15673 414 ft 31 kts 166°
2026-05-06 09:38 38.29170 27.15718 413 ft 17 kts 166°
2026-05-06 09:38 38.29048 27.15755 412 ft 18 kts 166°
2026-05-06 09:39 38.28994 27.15771 413 ft 8 kts 166°
2026-05-06 09:39 38.28928 27.15783 412 ft 11 kts 179°
2026-05-06 09:39 38.28840 27.15771 410 ft 14 kts 193°
2026-05-06 09:39 38.28749 27.15739 408 ft 3 kts 198°
2026-05-06 09:40 38.28721 27.15729 408 ft 5 kts 193°
2026-05-06 09:40 38.28679 27.15719 408 ft 7 kts 193°
2026-05-06 09:40 38.28575 27.15617 406 ft 12 kts 249°
2026-05-06 09:41 38.28580 27.15508 408 ft 12 kts 276°
2026-05-06 09:41 38.28588 27.15460 409 ft 0 kts 297°
2026-05-06 09:41 38.28592 27.15453 409 ft 1 kts 304°
2026-05-06 09:41 38.28598 27.15443 409 ft 1 kts 307°
2026-05-06 09:42 38.28606 27.15432 409 ft 2 kts 318°
2026-05-06 09:42 38.28620 27.15420 409 ft 2 kts 330°
2026-05-06 09:42 38.28652 27.15404 410 ft 8 kts 344°
2026-05-06 09:42 38.28724 27.15384 410 ft 12 kts 351°
2026-05-06 09:43 38.28810 27.15361 411 ft 13 kts 346°
2026-05-06 09:43 38.28895 27.15334 411 ft 14 kts 347°
2026-05-06 09:43 38.28963 27.15313 411 ft 10 kts 340°
2026-05-06 09:43 38.29009 27.15249 411 ft 10 kts 300°
2026-05-06 09:44 38.29047 27.15206 411 ft 5 kts 306°
2026-05-06 09:44 38.29051 27.15150 411 ft 5 kts 259°